Simultaneous Nadir Overpasses (SNOs) Predictions

Prediction of SNOs between GOES-17 and METOP-B Satellite Orbit:

Table of predicted SNOs for the next 14.0 days since TLE Epoch: 4/29/2023
Index Date Time (GOES-17) GOES-17 Lat,Lon METOP-B Lat,Lon Distance(km) Time Diff (sec)
1 04/29/2023 16:37:04 0.01,-104.75 0.53,-107.03 260.47 80
2 04/30/2023 16:19:04 0.01,-104.75 -0.62,-102.04 308.94 80
3 05/02/2023 04:38:04 -0.01,-104.72 -0.42,-106.64 218.39 80
4 05/03/2023 04:14:43 -0.01,-104.72 0.67,-101.64 350.93 80
5 05/04/2023 16:33:33 0.01,-104.75 0.36,-106.19 164.75 80
6 05/05/2023 16:15:34 0.02,-104.75 -0.79,-101.20 404.62 80
7 05/07/2023 04:34:33 -0.01,-104.72 -0.24,-105.80 123.16 80
8 05/08/2023 04:11:13 0.00,-104.71 0.85,-100.80 445.26 80
9 05/09/2023 16:30:04 -0.02,-104.74 0.11,-105.37 71.80 80
10 05/10/2023 16:12:04 -0.02,-104.73 -0.99,-100.37 496.82 80
11 05/12/2023 04:31:03 0.03,-104.69 -0.03,-104.97 31.09 80
